Weather History for Gainesville, GA

Change the Weather History Date:

Saturday, September 8, 2012

  Actual Average Record
Temperature  
Mean Temperature 75 °F 74 °F  
Max Temperature 84 °F 83 °F 97 °F (1941)
Min Temperature 66 °F 66 °F 49 °F (1932)
Degree Days  
Heating Degree Days 0 0  
Month to date heating degree days 0  
Since 1 July heating degree days 0  
Cooling Degree Days 10 9  
Month to date cooling degree days 82  
Year to date cooling degree days 1408  
Growing Degree Days 25 (Base 50)    
Moisture  
Dew Point 68 °F    
Average Humidity 81    
Maximum Humidity 97    
Minimum Humidity 56    
Precipitation  
Precipitation 0.50 in 0.17 in 0.99 in (1962)
Month to date precipitation 1.12  
Year to date precipitation 37.37  
Sea Level Pressure  
Sea Level Pressure 29.84 in    
Wind  
Wind Speed 5 mph (West)    
Max Wind Speed 14 mph    
Max Gust Speed 24 mph    
Visibility 9 miles    
Events Rain , Thunderstorm    
T = Trace of Precipitation, MM = Missing Value Source: NWS Daily Summary

Daily Weather History Graph

Daily Weather History Graph

Search for Another Location

Airport:

Trip Planner

Search our weather history database for the weather conditions in past years. The results will help you decide how hot, cold, wet, or windy it might be!

Date:

Astronomy

Sep. 08, 2012 Rise Set
Actual Time 7:13 AM EDT 7:51 PM EDT
Civil Twilight 6:48 AM EDT 8:16 PM EDT
Nautical Twilight 6:18 AM EDT 8:46 PM EDT
Astronomical Twilight 5:48 AM EDT 9:16 PM EDT
Moon 12:06 AM EDT (9/8) 2:35 PM EDT (9/8)
Length of Visible Light 13h 27m
Length of Day
12h 37m
Waning Gibbous, 49% of the Moon is Illuminated
Sep 8
Waning Gibbous
Sep 15
New
Sep 22
First Quarter
Sep 29
Full
Oct 8
Last Quarter

Hourly Weather History & Observations

Time (EDT) Temp. Heat Index Dew Point Humidity Pressure Visibility Wind Dir Wind Speed Gust Speed Precip Events Conditions
12:53 AM 75.0 °F - 68.0 °F 79% 29.88 in 10.0 mi Calm Calm - N/A   Clear
1:53 AM 73.0 °F - 68.0 °F 84% 29.88 in 10.0 mi Calm Calm - N/A   Partly Cloudy
2:53 AM 73.9 °F - 68.0 °F 82% 29.85 in 10.0 mi Calm Calm - N/A   Clear
3:53 AM 72.0 °F - 69.1 °F 91% 29.84 in 10.0 mi WSW 3.5 mph - N/A   Clear
4:53 AM 73.0 °F - 70.0 °F 90% 29.83 in 10.0 mi West 4.6 mph - N/A   Clear
5:53 AM 73.0 °F - 71.1 °F 93% 29.83 in 9.0 mi West 5.8 mph - 0.10 in Rain Light Rain
5:58 AM 73.4 °F - 71.6 °F 94% 29.89 in 10.0 mi SW 4.6 mph - 0.00 in Thunderstorm Mostly Cloudy
6:17 AM 71.6 °F - 68.0 °F 88% 29.88 in 2.0 mi SSW 13.8 mph 24.2 mph 0.15 in Rain , Thunderstorm Heavy Thunderstorms and Rain
6:31 AM 69.8 °F - 66.2 °F 88% 29.88 in 1.8 mi SSW 9.2 mph - 0.36 in Rain Heavy Rain
6:38 AM 71.6 °F - 68.0 °F 88% 29.88 in 1.5 mi West 5.8 mph - 0.40 in Rain Light Rain
6:40 AM 71.6 °F - 69.8 °F 94% 29.88 in 2.5 mi WNW 5.8 mph - 0.40 in Rain Light Rain
6:45 AM 71.6 °F - 69.8 °F 94% 29.88 in 8.0 mi WSW 4.6 mph - 0.40 in Rain Light Rain
6:53 AM 71.1 °F - 69.1 °F 93% 29.83 in 10.0 mi West 4.6 mph - 0.40 in   Overcast
7:04 AM 71.6 °F - 69.8 °F 94% 29.88 in 10.0 mi WSW 4.6 mph - N/A   Scattered Clouds
7:53 AM 72.0 °F - 71.1 °F 97% 29.82 in 5.0 mi SSW 4.6 mph - N/A   Clear
8:53 AM 73.9 °F - 72.0 °F 93% 29.83 in 9.0 mi WSW 5.8 mph - N/A   Partly Cloudy
9:36 AM 75.2 °F - 71.6 °F 89% 29.88 in 10.0 mi WNW 4.6 mph - N/A   Mostly Cloudy
9:49 AM 75.2 °F - 71.6 °F 89% 29.88 in 10.0 mi NW 8.1 mph - N/A   Overcast
10:51 AM 77.0 °F - 71.6 °F 83% 29.89 in 10.0 mi West 6.9 mph - N/A   Mostly Cloudy
10:53 AM 77.0 °F - 71.1 °F 82% 29.84 in 10.0 mi West 5.8 mph - N/A   Mostly Cloudy
11:02 AM 77.0 °F - 71.6 °F 83% 29.88 in 10.0 mi West 8.1 mph - N/A   Mostly Cloudy
11:53 AM 81.0 °F 84.9 °F 71.1 °F 72% 29.83 in 10.0 mi West 9.2 mph - N/A   Clear
12:53 PM 84.0 °F 88.4 °F 70.0 °F 63% 29.80 in 10.0 mi West 11.5 mph - N/A   Scattered Clouds
1:53 PM 84.0 °F 86.5 °F 66.9 °F 56% 29.79 in 10.0 mi West 12.7 mph - N/A   Partly Cloudy
2:53 PM 81.0 °F 83.3 °F 66.9 °F 62% 29.77 in 10.0 mi NW 12.7 mph 20.7 mph N/A   Clear
3:53 PM 80.1 °F 82.3 °F 66.9 °F 64% 29.77 in 10.0 mi NW 9.2 mph - N/A   Overcast
4:53 PM 78.1 °F - 66.0 °F 66% 29.77 in 10.0 mi WNW 9.2 mph - N/A   Overcast
5:53 PM 78.1 °F - 66.9 °F 68% 29.77 in 10.0 mi WNW 10.4 mph - N/A   Mostly Cloudy
6:53 PM 75.9 °F - 66.0 °F 71% 29.78 in 10.0 mi WNW 9.2 mph - N/A   Mostly Cloudy
7:53 PM 73.0 °F - 63.0 °F 71% 29.81 in 10.0 mi NNW 6.9 mph - N/A   Clear
8:53 PM 71.1 °F - 62.1 °F 73% 29.83 in 10.0 mi NW 9.2 mph - N/A   Clear
9:53 PM 69.1 °F - 61.0 °F 75% 29.85 in 10.0 mi NW 10.4 mph - N/A   Clear
10:53 PM 66.9 °F - 60.1 °F 79% 29.86 in 10.0 mi NNW 9.2 mph - N/A   Clear
11:53 PM 66.0 °F - 59.0 °F 78% 29.86 in 10.0 mi NW 9.2 mph - N/A   Clear